480P/PanSTARRS (2023)

Japanese version
Home page
Updated on May 15, 2024

---------------------------------------------------------------------

* Profile

Designation 480P/2023 X6
Recovery Date December 9, 2023
Magnitude 21.5 mag
Recoverer Pan-STARRS 1 telescope (Haleakala)

* Orbital Elements

Epoch 2024 Mar. 31.0 TT = JDT 2460400.5
T 2023 Apr. 22.93756 TT                                 Rudenko
q   3.4725214            (2000.0)            P               Q
n   0.09965202     Peri.  214.25492     +0.11279499     -0.97688309
a   4.6076411      Node   229.97711     +0.95645827     +0.15626192
e   0.2463559      Incl.   13.71750     +0.26919300     -0.14588228
P   9.89
>From 90 observations 2014 Jan. 9-2024 Mar. 12, mean residual 0".2.

* Magnitudes Graph

        m1 = 12.0 + 5 log d + 10.0 log r

---------------------------------------------------------------------

The orbital elements are published on M.P.E.C. 2024-G193.
The magnitudes graphs are made with Comet for Windows.

---------------------------------------------------------------------

Copyright(C) Seiichi Yoshida (comet@aerith.net). All rights reserved.